RH
5998 5709 5535 5462 5537 5661 5785 5917 6079 6223 6329 6391 6299 6052 5744 5448 5246 5074 4937 4875 4798 4670 4510 4291 4145 3990 3874 3757 3604 3449 3298 3143 2953 2788 2673 2616 2637 2677 2762 2858 2999 3183 3423 3692 4012 4321 4581 4810 5015 5223 5425 5590 5720 5771 5780 5733 5705 5771 5880 5989 6110 6226 6219 6061 5848 5732 5734 5832 6010
4792 4717 4763 4876 5062 5209 5362 5552 5760 5893 5941 5827 5580 5299 5029 4798 4640 4520 4412 4304 4150 3991 3855 3725 3659 3613 3559 3511 3414 3279 3133 2929 2775 2649 2601 2588 2639 2740 2850 2968 3151 3357 3603 3861 4149 4407 4644 4887 5131 5362 5580 5754 5806 5839 5870 5942 6002 6023 6042 6045 6094 6099 6049 5862 5674 5555 5540 5709 6002
4285 4380 4521 4676 4829 4976 5129 5284 5365 5338 5199 4946 4728 4551 4413 4259 4132 3999 3867 3701 3559 3473 3420 3405 3448 3455 3460 3423 3338 3184 3016 2851 2736 2690 2693 2759 2840 2941 3057 3173 3321 3541 3776 4041 4267 4482 4693 4946 5223 5453 5627 5689 5735 5837 5955 6002 6052 6071 6079 6055 6007 5930 5834 5725 5616 5571 5620 5793 6089
4291 4420 4560 4668 4822 4959 5054 5060 4893 4672 4427 4234 4122 4014 3931 3837 3674 3523 3387 3278 3222 3210 3269 3325 3426 3453 3477 3445 3313 3159 3027 2951 2959 3009 3087 3194 3323 3434 3483 3533 3629 3773 3969 4177 4374 4546 4749 4977 5213 5384 5474 5459 5537 5676 5813 5849 5857 5856 5889 5895 5755 5635 5557 5527 5544 5626 5782 6029 6325
4410 4502 4566 4630 4698 4724 4670 4510 4237 4020 3855 3766 3704 3643 3541 3439 3301 3195 3126 3098 3139 3204 3285 3395 3482 3543 3532 3451 3280 3220 3262 3391 3499 3602 3703 3815 3921 3965 3998 3987 4040 4113 4220 4384 4553 4696 4823 4971 5140 5274 5353 5410 5507 5607 5632 5596 5566 5588 5615 5713 5725 5685 5589 5554 5676 5851 6076 6328 6652
4415 4435 4396 4351 4263 4151 3971 3777 3633 3542 3485 3451 3388 3322 3222 3152 3102 3083 3100 3150 3262 3350 3476 3600 3694 3691 3616 3421 3421 3587 3810 4011 4134 4210 4285 4368 4396 4410 4395 4359 4378 4412 4497 4667 4830 4920 4987 5003 5049 5131 5251 5411 5447 5434 5401 5330 5316 5316 5399 5562 5863 6144 6363 6484 6523 6621 6802 7077 7373
4320 4189 4049 3876 3698 3529 3371 3277 3217 3193 3174 3157 3107 3090 3068 3032 3096 3188 3285 3414 3543 3692 3833 3946 3923 3800 3636 3618 3948 4220 4427 4527 4599 4661 4698 4737 4730 4704 4663 4603 4610 4602 4651 4787 4930 4991 5020 4994 4949 4948 4976 5050 5110 5117 5143 5166 5210 5326 5496 5726 6215 6774 7276 7512 7643 7766 7854 7944 7970
4147 3924 3711 3470 3299 3155 3056 2982 2976 2976 2976 2967 3005 3053 3100 3200 3355 3528 3681 3841 4004 4142 4246 4248 4037 3899 3913 4266 4624 4812 4924 4943 4963 4978 5005 5048 5019 4948 4866 4785 4688 4678 4684 4736 4845 4943 5005 5027 5005 4981 4965 4888 4849 4870 4983 5134 5293 5496 5748 6026 6437 6895 7291 7546 7643 7737 7801 7821 7822
3907 3666 3441 3249 3102 2991 2914 2886 2919 2949 2993 3057 3157 3268 3445 3650 3877 4041 4184 4331 4460 4509 4478 4321 4105 4190 4505 5038 5249 5348 5340 5318 5307 5278 5285 5293 5228 5101 4947 4790 4702 4690 4725 4790 4917 5079 5229 5330 5336 5336 5272 5177 5110 5086 5133 5252 5451 5705 6018 6310 6512 6683 6838 7043 7138 7216 7256 7293 7291
3730 3519 3348 3162 3059 2989 2960 2971 3054 3148 3262 3395 3543 3748 3977 4243 4429 4545 4616 4684 4767 4751 4647 4441 4398 4687 5180 5693 5807 5808 5748 5712 5648 5557 5502 5428 5288 5103 4904 4719 4705 4773 4915 5055 5255 5440 5579 5638 5568 5489 5373 5249 5182 5200 5326 5509 5757 6032 6343 6608 6717 6807 6856 6841 6838 6850 6865 6841 6772
3702 3538 3377 3240 3130 3104 3130 3188 3318 3482 3635 3797 4027 4252 4515 4732 4836 4861 4898 4944 5022 5048 4976 4854 4968 5337 5849 6284 6285 6205 6100 6016 5893 5762 5618 5429 5199 4972 4795 4698 4788 4988 5217 5435 5608 5696 5698 5611 5420 5273 5145 5096 5200 5384 5632 5898 6168 6379 6532 6621 6645 6646 6628 6629 6580 6506 6449 6366 6273
3754 3595 3426 3313 3275 3296 3368 3484 3626 3796 4005 4186 4416 4647 4839 4987 5043 5085 5111 5187 5357 5444 5504 5513 5701 6053 6441 6689 6560 6416 6271 6120 5938 5746 5528 5277 5021 4844 4760 4815 5048 5305 5522 5705 5751 5721 5600 5423 5251 5184 5234 5379 5649 5906 6138 6362 6496 6600 6652 6651 6622 6565 6499 6401 6259 6114 5958 5805 5650
3781 3634 3484 3396 3428 3525 3625 3737 3890 4066 4230 4405 4581 4773 4938 5076 5173 5240 5314 5435 5616 5791 5932 6053 6257 6555 6783 6816 6673 6505 6319 6085 5848 5618 5362 5102 4904 4839 4905 5097 5370 5606 5762 5840 5790 5691 5552 5444 5485 5626 5842 6091 6266 6433 6520 6610 6676 6698 6722 6696 6637 6549 6460 6324 6148 5960 5735 5520 5317
3745 3616 3550 3534 3615 3704 3805 3887 4015 4152 4299 4459 4582 4741 4916 5101 5229 5353 5488 5616 5805 5989 6165 6288 6458 6662 6826 6843 6748 6572 6338 6062 5769 5495 5235 5040 4952 5004 5171 5441 5688 5860 5974 5980 5925 5864 5830 5869 6110 6381 6623 6765 6782 6803 6836 6843 6876 6862 6841 6816 6725 6626 6490 6327 6114 5903 5659 5445 5224
3705 3658 3667 3725 3787 3849 3895 3946 4038 4173 4295 4415 4525 4695 4899 5122 5276 5447 5624 5794 5972 6162 6301 6402 6453 6595 6740 6884 6783 6610 6365 6073 5771 5498 5282 5128 5163 5282 5502 5760 5987 6147 6230 6257 6216 6246 6326 6531 6811 7048 7160 7205 7188 7168 7151 7126 7111 7113 7093 7067 7007 6908 6752 6538 6274 5984 5679 5398 5136
3720 3737 3808 3888 3917 3924 3948 4007 4102 4204 4313 4430 4562 4749 4983 5182 5375 5566 5766 5963 6110 6255 6349 6396 6425 6538 6730 6888 6798 6611 6372 6099 5821 5598 5460 5399 5471 5630 5846 6106 6354 6532 6615 6633 6659 6771 6929 7173 7373 7484 7534 7489 7439 7386 7341 7315 7300 7305 7307 7309 7249 7155 6996 6744 6412 6045 5657 5290 5005
3804 3846 3915 3996 4010 4045 4102 4150 4260 4361 4443 4563 4756 4951 5175 5381 5555 5746 5946 6116 6196 6250 6299 6338 6465 6619 6766 6852 6741 6544 6285 6063 5887 5804 5757 5737 5813 5958 6207 6521 6814 6985 7058 7098 7163 7312 7473 7627 7687 7698 7673 7634 7575 7533 7507 7454 7456 7439 7441 7402 7337 7195 6990 6701 6310 5879 5455 5055 4772
3933 3982 4020 4070 4130 4217 4326 4424 4529 4634 4766 4917 5113 5298 5476 5641 5813 5960 6097 6228 6234 6223 6227 6321 6523 6643 6709 6671 6560 6374 6185 6034 6012 6055 6115 6183 6231 6381 6632 7008 7282 7443 7504 7562 7638 7720 7794 7832 7840 7816 7813 7771 7738 7701 7676 7615 7604 7579 7529 7445 7292 7071 6811 6471 6018 5574 5130 4771 4523
4131 4155 4178 4201 4305 4443 4596 4751 4902 5043 5207 5365 5520 5660 5803 5928 6040 6121 6188 6216 6227 6212 6243 6330 6424 6479 6468 6421 6291 6158 6087 6070 6196 6385 6566 6721 6811 6950 7171 7501 7709 7818 7863 7893 7923 7944 7951 7942 7941 7933 7921 7888 7852 7804 7760 7713 7663 7597 7495 7357 7098 6806 6444 6005 5529 5058 4639 4353 4201
4388 4413 4396 4403 4525 4699 4877 5073 5275 5439 5587 5721 5837 5890 5927 6026 6121 6188 6218 6212 6210 6221 6244 6242 6221 6185 6149 6147 6095 6065 6081 6210 6445 6741 7032 7276 7385 7546 7713 7916 8042 8085 8104 8095 8099 8085 8059 8034 7984 7942 7887 7829 7807 7734 7698 7632 7530 7420 7309 7118 6759 6318 5838 5338 4868 4449 4152 3965 3910
4652 4702 4708 4715 4825 5010 5196 5409 5573 5711 5836 5917 5889 5903 5922 6040 6178 6255 6257 6206 6159 6112 6041 5980 5946 5944 5969 6007 6015 6081 6221 6428 6776 7160 7479 7687 7830 7966 8079 8171 8204 8218 8212 8186 8149 8096 8030 7972 7872 7820 7753 7717 7690 7646 7557 7461 7301 7160 7001 6741 6258 5707 5159 4643 4269 4018 3880 3823 3840
4877 4945 5013 5077 5194 5337 5496 5652 5771 5835 5899 5861 5896 5971 6090 6234 6294 6274 6212 6110 5988 5860 5735 5698 5765 5864 5968 5993 6111 6270 6494 6809 7210 7561 7835 8000 8132 8209 8235 8249 8243 8243 8212 8170 8098 8010 7918 7833 7777 7736 7736 7714 7659 7549 7411 7260 7102 6951 6729 6376 5746 5127 4565 4163 3944 3842 3834 3854 3888
5140 5252 5343 5429 5511 5605 5688 5759 5769 5800 5848 5966 6151 6311 6448 6443 6370 6245 6123 5930 5713 5571 5499 5552 5738 5921 6085 6262 6423 6600 6854 7218 7560 7850 8049 8206 8250 8263 8274 8257 8252 8227 8171 8113 8036 7951 7890 7813 7774 7752 7730 7686 7573 7430 7273 7104 6976 6774 6474 5971 5263 4652 4203 3934 3866 3861 3876 3902 3920
5499 5601 5655 5666 5675 5713 5754 5727 5760 5868 6087 6371 6565 6646 6639 6559 6436 6220 5939 5624 5440 5363 5414 5547 5792 6033 6290 6632 6747 6905 7117 7391 7650 7896 8126 8278 8266 8266 8261 8247 8209 8170 8115 8051 7980 7870 7776 7705 7630 7580 7512 7440 7313 7184 7031 6903 6749 6471 6043 5424 4776 4300 4006 3868 3844 3859 3852 3840 3802
5793 5830 5842 5793 5748 5730 5759 5860 6044 6273 6503 6678 6751 6742 6652 6501 6211 5847 5516 5344 5338 5399 5505 5684 5951 6224 6498 6804 7046 7252 7438 7563 7742 7914 8076 8212 8207 8190 8162 8135 8085 8022 7945 7824 7687 7544 7423 7332 7293 7252 7180 7083 6962 6834 6711 6567 6312 5885 5317 4712 4277 4015 3844 3753 3707 3645 3589 3514 3424
5900 5943 5947 5883 5782 5821 5985 6273 6516 6648 6720 6685 6665 6600 6426 6130 5680 5399 5297 5376 5518 5674 5835 6052 6298 6562 6814 7066 7309 7512 7665 7765 7838 7901 7945 7971 7954 7904 7855 7786 7693 7571 7451 7319 7182 7069 7036 7041 7085 7035 6945 6798 6644 6447 6237 5967 5512 4975 4461 4032 3807 3663 3550 3460 3332 3226 3131 3031 2931
5854 5877 5903 5882 5944 6121 6337 6576 6680 6722 6649 6538 6429 6234 5940 5496 5278 5273 5431 5650 5803 5989 6182 6391 6612 6826 7023 7210 7366 7535 7645 7720 7756 7745 7718 7663 7597 7495 7374 7250 7146 7050 6957 6891 6869 6885 6946 7029 6987 6864 6666 6414 6129 5796 5410 4984 4512 4065 3768 3555 3424 3298 3163 3046 2921 2815 2704 2590 2481
5695 5760 5874 5977 6123 6285 6455 6606 6591 6532 6373 6228 5937 5616 5320 5140 5266 5469 5685 5863 6032 6201 6396 6620 6868 7030 7160 7259 7301 7351 7367 7350 7339 7292 7243 7140 7041 6920 6844 6778 6748 6749 6771 6792 6844 6873 6854 6763 6544 6237 5904 5530 5170 4790 4399 4025 3722 3504 3335 3187 3045 2927 2785 2674 2584 2456 2350 2244 2141
5668 5833 6000 6076 6174 6262 6355 6371 6245 6049 5794 5467 5077 4880 4865 5064 5329 5541 5737 5896 6096 6364 6638 6897 7043 7087 7109 7148 7115 7082 7026 6977 6979 6946 6904 6833 6767 6712 6707 6701 6708 6720 6693 6628 6505 6326 6074 5771 5440 5105 4777 4482 4188 3896 3652 3466 3313 3160 3007 2845 2697 2577 2465 2364 2294 2199 2093 1981 1913
5949 6061 6130 6124 6127 6079 5968 5752 5455 5084 4685 4314 4113 4157 4408 4846 5166 5429 5659 5902 6232 6555 6796 6923 6922 6935 6904 6862 6803 6745 6705 6675 6666 6671 6650 6632 6589 6535 6424 6332 6190 6027 5811 5595 5342 5070 4807 4571 4356 4170 3993 3848 3671 3501 3334 3167 3003 2838 2679 2537 2421 2315 2216 2112 2039 1935 1862 1789 1749
6335 6318 6177 5988 5768 5523 5193 4803 4344 3973 3692 3555 3643 3857 4187 4639 5087 5455 5799 6132 6428 6683 6855 6895 6834 6734 6604 6468 6275 6091 5912 5773 5679 5620 5590 5539 5473 5388 5296 5151 4989 4799 4634 4464 4328 4204 4077 3974 3888 3773 3639 3523 3362 3195 3031 2866 2713 2575 2438 2320 2215 2110 2023 1924 1864 1790 1772 1801 1857
6494 6225 5845 5448 5059 4663 4252 3780 3510 3391 3424 3579 3854 4162 4510 4896 5270 5623 5940 6234 6454 6629 6730 6745 6651 6520 6325 6132 5835 5520 5217 4906 4716 4592 4524 4481 4455 4410 4350 4290 4195 4110 4046 3985 3941 3853 3755 3660 3554 3407 3277 3132 2971 2851 2713 2587 2488 2370 2265 2151 2035 1950 1890 1840 1813 1827 1861 1923 2048
6255 5725 5184 4664 4246 3844 3496 3296 3338 3489 3714 4048 4441 4849 5224 5560 5787 5981 6156 6262 6319 6337 6307 6263 6174 6051 5924 5738 5444 5152 4852 4591 4411 4295 4194 4157 4116 4055 3988 3934 3851 3791 3710 3620 3513 3402 3271 3165 3032 2909 2797 2688 2634 2551 2474 2414 2348 2265 2163 2069 1977 1930 1886 1886 1913 1952 2027 2116 2286
5622 4983 4376 3936 3573 3341 3287 3408 3615 3864 4197 4596 5052 5484 5858 6128 6236 6272 6251 6155 5998 5824 5673 5508 5363 5227 5104 4939 4786 4640 4479 4338 4221 4101 3985 3887 3760 3640 3530 3421 3330 3232 3134 3039 2932 2832 2742 2683 2598 2558 2523 2485 2455 2428 2390 2351 2288 2216 2152 2086 2038 2002 2007 2037 2102 2172 2263 2372 2566
4815 4210 3738 3368 3254 3313 3518 3745 3994 4323 4725 5183 5601 5959 6204 6309 6238 6077 5833 5559 5240 4945 4665 4474 4332 4212 4129 4077 4058 4026 3962 3885 3759 3607 3465 3325 3171 3057 2931 2824 2754 2691 2640 2595 2577 2531 2516 2509 2496 2511 2529 2515 2488 2482 2466 2402 2359 2275 2239 2202 2182 2187 2216 2284 2383 2491 2599 2738 2916
4083 3618 3307 3171 3338 3573 3865 4113 4428 4790 5198 5641 5930 6104 6127 6041 5784 5450 5095 4705 4327 4018 3787 3663 3621 3640 3666 3732 3732 3688 3589 3463 3315 3133 2979 2843 2745 2632 2570 2536 2507 2505 2518 2526 2560 2576 2594 2637 2660 2675 2687 2676 2665 2653 2634 2573 2503 2461 2430 2432 2444 2473 2541 2656 2755 2846 2954 3082 3156
3543 3266 3187 3290 3595 3906 4225 4509 4826 5151 5487 5761 5850 5827 5690 5445 5102 4729 4338 3975 3707 3528 3449 3434 3502 3573 3617 3626 3549 3434 3280 3112 2942 2794 2662 2583 2532 2509 2485 2493 2511 2529 2604 2653 2699 2757 2791 2832 2874 2895 2895 2840 2828 2880 2904 2878 2813 2776 2775 2782 2805 2873 2946 3016 3083 3133 3167 3218 3239
3302 3238 3371 3623 3932 4273 4577 4876 5133 5327 5472 5541 5480 5346 5140 4840 4515 4205 3899 3649 3520 3466 3466 3521 3571 3599 3571 3478 3330 3160 2956 2788 2651 2545 2474 2453 2452 2487 2523 2555 2601 2654 2737 2811 2883 2940 2987 3032 3047 3054 3032 3015 3014 3073 3129 3163 3134 3132 3147 3170 3212 3230 3251 3259 3268 3291 3278 3249 3230
3343 3472 3701 3990 4310 4634 4924 5186 5293 5328 5276 5196 5067 4903 4682 4429 4166 3933 3734 3584 3549 3560 3610 3648 3637 3544 3418 3264 3055 2874 2693 2552 2479 2413 2393 2439 2485 2540 2598 2654 2726 2789 2867 2970 3025 3099 3129 3132 3120 3109 3093 3082 3171 3299 3423 3470 3468 3493 3502 3549 3551 3470 3400 3373 3379 3346 3310 3273 3207
3580 3802 4077 4388 4726 5005 5234 5361 5284 5146 4978 4815 4676 4510 4343 4155 3977 3838 3724 3675 3664 3692 3698 3701 3607 3448 3262 3053 2858 2682 2550 2451 2397 2393 2406 2450 2527 2616 2691 2778 2828 2917 2998 3084 3137 3177 3181 3179 3158 3120 3109 3124 3329 3534 3690 3765 3776 3757 3719 3704 3661 3602 3521 3441 3414 3392 3365 3304 3267
3877 4137 4447 4785 5090 5279 5382 5311 5093 4855 4624 4440 4312 4211 4084 3957 3876 3840 3824 3818 3827 3799 3756 3652 3493 3312 3125 2921 2754 2633 2518 2427 2404 2401 2428 2490 2571 2691 2805 2905 2984 3037 3098 3153 3191 3187 3174 3136 3098 3098 3113 3198 3446 3678 3816 3885 3855 3809 3763 3712 3663 3627 3585 3515 3471 3437 3401 3370 3371